Showing default

TJS-5, 44978

Orbit data source: Space-Track

TJS-5, 44978 is a payload satellite owned by CASC (CN) in GEO that was launched on Tue, 07 Jan 2020 UTC via a CHANG ZHENG 3B launch vehicle from the Xichang Space Center, China (XSC). Payload-class satellites include a variety of spacecraft equipped with specific instruments for various scientific and technological missions. These include communications satellites like Starlink; space stations such as the ISS; scientific satellites like the Hubble; Earth observation satellites from companies like Planet Labs, Umbra, and HawkEye 360; GPS; miniature CubeSats for education and research; and military/defense satellites.

Not visible in the next 10 days
Identifier
44978, 2020-002A
Orbit
GEO
Country
Flag of CNCN / PRC
Related business
Manufacturer
SISE
Mission
Operational Defense Early Warn
Bus & Motor
FY-4?, Unknown motor
Mass
~4,000 kg wet, ~2,500 kg dry
Launch date (UTC)
2020-01-07 (6 years ago)
Launch vehicle
CHANG ZHENG 3B
Launch site
Xichang Space Center, China (XSC)
Object type
Payload
Rocket body
Debris
Shape & HBR
Box + 2 Pan, 15.0 m
Radar Cross Section
34.063 m², Large (>1 m²)

Expand to show TLE details & history
Last TLE update: 5 days ago

TLE from 5 days ago
0 TJS-5
1 44978U 20002A   25257.09821356 -.00000354  00000-0  00000+0 0  9993
2 44978   0.1110  95.1810 0004403  68.0772 332.9256  1.00274150 20936
Epoch: 2025-09-14T02:21Z
TLE epoch observation values (Epoch: 2025-09-14T02:21:25.651Z)
Latitude
0.06492°
Longitude
107.47548°
Altitude
35,768.831 km
Speed
3.076 km/s
True Right ascension
09h 04m 37s
True Declination
0° 03' 53"
Sunlit
Object was in daylight at epoch
Visualization orbit readout
Latitude
Unknown
Longitude
Unknown
Altitude
Unknown
Speed
Unknown
Apparent Right ascension
Unknown
Apparent Declination
Unknown
Sunlit
N/A
Visualization observer readout
Local Sidereal Time
23:49:03
Azimuth
Unknown
Elevation
Unknown
Doppler factor
Unknown
Orbital elements
Apogee altitude
35,805.568 km
Perigee altitude
35,768.437 km
Semi-major axis
42,165.139 km
Eccentricity
0.00044
Inclination
0.111°
RAAN
95.181°
Arg. of periapsis
68.0772°
True anomaly
332.90262°
Mean anomaly
332.9256°
Eccentric anomaly
332.91411°
Mean motion
0.25068 °/min
Orbital period
1,436.12 mins
BSTAR
0
Loading maneuver chart data...
Computing Atmospheric mass density...
Loading historical data...
Loading historical data...
Loading historical data...
Loading historical data...
Loading historical data...
Loading historical data...
Loading historical data...
Other satellites on launch #2 in the year 2020 (2020-01-07 UTC)

Documentation

Showing up to 5 results
|